Overview Statistics Trail Chart Weather Telemetry Raw packets
 

This is the latest recevied weather packets stored in our database for station/object KBTL-WX. If no packets are shown the sender has not sent any weather packets the latest 10 day(s).

<< 11 12 13 14 15 16 17 >>
Time Temp. Humidity Pressure Rain* Wind** Luminosity Snow
1777673713 6.67° C 57% 983.9 hPa 0 mm - - -
1777672852 6.67° C 57% 983.9 hPa 0 mm - - -
1777671913 6.67° C 60% 983.4 hPa 0 mm - - -
1777671026 6.67° C 61% 983.8 hPa 0 mm - - -
1777670113 5.56° C 61% 983.8 hPa 0 mm - - -
1777669236 6.67° C 61% 983.8 hPa 0 mm - - -
1777668313 7.22° C 52% 983.1 hPa 0 mm - - -
1777667430 7.78° C 55% 983.1 hPa 0 mm - - -
1777666513 7.78° C 55% 983.1 hPa 0 mm - - -
1777665636 7.22° C 55% 983.1 hPa 0 mm - - -
1777664713 7.22° C 58% 982.8 hPa 0 mm - - -
1777663830 7.22° C 58% 982.8 hPa 0 mm - - -
1777662913 7.22° C 58% 982.8 hPa 0 mm - - -
1777662031 7.78° C 58% 982.8 hPa 0 mm - - -
1777661113 7.78° C 58% 982.2 hPa 0 mm - - -
1777660227 7.78° C 55% 982.5 hPa 0 mm - - -
1777659313 7.78° C 55% 982.6 hPa 0 mm - - -
1777658436 7.78° C 55% 982.6 hPa 0 mm - - -
1777657513 7.78° C 54% 983.3 hPa 0 mm - - -
1777656628 7.78° C 57% 982.8 hPa 0 mm - - -
1777655713 7.78° C 57% 982.8 hPa 0 mm - - -
1777654836 7.78° C 57% 982.8 hPa 0 mm - - -
1777653912 7.78° C 58% 981.3 hPa 0 mm - - -
1777653032 7.78° C 67% 981.8 hPa 0 mm - - -
1777652113 6.67° C 67% 981.8 hPa 0 mm - - -

* Rain latest hour (hover to see other rain measurements)
** Current wind speed in m/s (hover to see current wind gust speed)